Regional Weather Roundup
Issued by NWS

Home | Current Version | Previous Version | Text Only | Print | Product List | Glossary On
Versions: 1 2 3 4 5 6 7 8 9 10 11 12 13 14 15 16 17 18 19 20 21 22 23 24 25 26 27 28 29 30 31 32 33 34 35 36 37 38 39 40 41 42 43 44 45 46 47 48 49 50
000
ASUS44 KJAN 311810
RWRMS

MISSISSIPPI HOURLY WEATHER ROUNDUP
NATIONAL WEATHER SERVICE JACKSON MS
1200 PM CST SAT JAN 31 2015

NOTE: "FAIR: INDICATES FEW OR NO CLOUDS BELOW 12,000 FEET WITH NO
SIGNIFICANT WEATHER AND/OR OBSTRUCTIONS TO VISIBILITY.

MSZ001>002-007>008-010>013-018>021-025>028-034>036-311900-
NORTHWEST MISSISSIPPI

CITY           SKY/WX    TMP DP  RH WIND       PRES   REMARKS
CLARKSDALE     CLOUDY    45  28  53 E6        30.32F
CLEVELAND      FAIR      46  29  52 SE10      30.30F
GREENWOOD      PTSUNNY   53  23  31 E9        30.30F
6HR MIN TEMP:  33; 6HR MAX TEMP:  53;

GREENVILLE     CLOUDY    50  29  44 SE13      30.29F
6HR MIN TEMP:  36; 6HR MAX TEMP:  50;

GRENADA        FAIR      46  28  49 E8        30.32F
OLIVE BRANCH   CLOUDY    41  27  56 E6        30.32F
OXFORD         FAIR      46  21  36 SE7       30.33F
TUNICA         CLOUDY    45  27  49 SE3       30.33F
$$

MSZ003>006-009-014>017-022>024-029>033-037>039-311900-
NORTHEAST MISSISSIPPI

CITY           SKY/WX    TMP DP  RH WIND       PRES   REMARKS
COLUMBUS AFB   PTSUNNY   53  19  26 SE5       30.33F
6HR MIN TEMP:  31; 6HR MAX TEMP:  53;

CORINTH        FAIR      46  25  42 SE5       30.33F
GOLDN TRIANGLE MOSUNNY   52  23  32 S5        30.34F
STARKVILLE     FAIR      50  27  40 E6        30.33F
TUPELO         PTSUNNY   50  21  32 SE7       30.33F
6HR MIN TEMP:  32; 6HR MAX TEMP:  50;

$$

MSZ040-058-311900-
CENTRAL MISSISSIPPI

CITY           SKY/WX    TMP DP  RH WIND       PRES   REMARKS
JACKSON INTL   MOSUNNY   54  23  30 E7        30.30F
6HR MIN TEMP:  37; 6HR MAX TEMP:  55;

JACKSON HAWKNS SUNNY     55  24  30 S9        30.30F
6HR MIN TEMP:  37; 6HR MAX TEMP:  55;

MERIDIAN KEY   MOSUNNY   54  21  27 NE6       30.32F
6HR MIN TEMP:  27; 6HR MAX TEMP:  54;

MERIDIAN NAS   MOSUNNY   52  21  29 NE5       30.34F
6HR MIN TEMP:  26; 6HR MAX TEMP:  52;

RAYMOND        FAIR      55  50  82 MISG      30.29F
VICKSBURG      MOSUNNY   54  28  36 E8        30.29F
6HR MIN TEMP:  34; 6HR MAX TEMP:  54;

$$

MSZ059>079-311900-
SOUTH MISSISSIPPI

CITY           SKY/WX    TMP DP  RH WIND       PRES   REMARKS
BROOKHAVEN     FAIR      54  28  37 E7        30.31F
HATTIESBURG    MOSUNNY   55  27  34 MISG      30.31F
6HR MIN TEMP:  29; 6HR MAX TEMP:  55;

MCCOMB         MOSUNNY   56  27  32 SE7       30.29F
6HR MIN TEMP:  34; 6HR MAX TEMP:  56;

NATCHEZ        MOSUNNY   57  28  33 SE8       30.29F
6HR MIN TEMP:  36; 6HR MAX TEMP:  57;

PINE BELT      MOSUNNY   54  25  32 E3        30.32F
6HR MIN TEMP:  32; 6HR MAX TEMP:  54;

$$

MSZ080>082-311900-
COASTAL MISSISSIPPI

CITY           SKY/WX    TMP DP  RH WIND       PRES   REMARKS
BAY ST LOUIS   SUNNY     59  39  47 SE13      30.30F
BILOXI         SUNNY     60  41  51 SE12      30.31F
6HR MIN TEMP:  35; 6HR MAX TEMP:  60;

PASCAGOULA     SUNNY     58  40  51 VRB7      30.32F
6HR MIN TEMP:  29; 6HR MAX TEMP:  59;

GULFPORT       SUNNY     57  41  55 E10       30.30F
6HR MIN TEMP:  38; 6HR MAX TEMP:  58;

$$


USA.gov is the U.S. government's official web portal to all federal, state and local government web resources and services.